Sussex, NJ

4:36 PM EDT on May 28, 2017 (GMT -0400)
Sussex

Weather History for KFWN - March, 2014

Change the Weather History Date:

Tuesday, March 11, 2014

  Actual Average Record
Temperature  
Mean Temperature 46 °F -  
Max Temperature 62 °F 45 °F 68 °F (1977)
Min Temperature 30 °F 22 °F 1 °F (1960)
Degree Days  
Heating Degree Days 20    
Moisture  
Dew Point 29 °F    
Average Humidity 62    
Maximum Humidity 89    
Minimum Humidity 29    
Precipitation  
Precipitation 0.00 in - - ()
Sea Level Pressure  
Sea Level Pressure 29.63 in    
Wind  
Wind Speed 3 mph (WSW)    
Max Wind Speed 9 mph    
Max Gust Speed 18 mph    
Visibility 9 miles    
Events Rain    
Averages and records for this station are not official NWS values.
T = Trace of Precipitation, MM = Missing Value Source: NWS Daily Summary

Daily Weather History Graph

Daily Weather History Graph

Search for Another Location

Airport or City:

Trip Planner

Search our weather history database for the weather conditions in past years. The results will help you decide how hot, cold, wet, or windy it might be!

Date:

Astronomy

Mar. 11, 2014 Rise Set
Actual Time 7:16 AM EDT 7:00 PM EDT
Civil Twilight 6:49 AM EDT 7:28 PM EDT
Nautical Twilight 6:17 AM EDT 8:00 PM EDT
Astronomical Twilight 5:45 AM EDT 8:32 PM EDT
Moon 2:32 PM EDT (3/11) 4:10 AM EDT (3/11)
Length of Visible Light 12h 38m
Length of Day
11h 43m
Waxing Gibbous, 78% of the Moon is Illuminated
Mar 11
Waxing Gibbous
Mar 16
Full
Mar 23
Last Quarter
Mar 30
New
Apr 7
First Quarter

Hourly Weather History & Observations

Time (EDT) Temp. Windchill Dew Point Humidity Pressure Visibility Wind Dir Wind Speed Gust Speed Precip Events Conditions
12:53 AM 30.9 °F - 28.0 °F 89% 29.57 in 7.0 mi Calm Calm - N/A   Clear
1:53 AM 30.0 °F 26.5 °F 27.0 °F 88% 29.57 in 6.0 mi SW 3.5 mph - N/A   Clear
2:53 AM 30.0 °F - 27.0 °F 88% 29.56 in 6.0 mi Calm Calm - N/A   Clear
3:53 AM 32.0 °F 27.5 °F 28.0 °F 85% 29.56 in 8.0 mi SSW 4.6 mph - N/A   Clear
4:53 AM 34.0 °F 28.8 °F 28.0 °F 79% 29.56 in 9.0 mi SSW 5.8 mph - N/A   Clear
5:53 AM 32.0 °F - 27.0 °F 82% 29.59 in 9.0 mi Calm Calm - N/A   Clear
6:53 AM 36.0 °F 32.1 °F 28.9 °F 76% 29.61 in 10.0 mi SSW 4.6 mph - N/A   Clear
7:53 AM 36.0 °F 31.1 °F 28.9 °F 76% 29.63 in 8.0 mi SSW 5.8 mph - N/A   Clear
8:53 AM 37.0 °F 34.5 °F 30.9 °F 79% 29.64 in 7.0 mi SSW 3.5 mph - N/A   Clear
9:53 AM 46.0 °F 44.8 °F 33.1 °F 61% 29.65 in 10.0 mi SW 3.5 mph - N/A   Clear
10:53 AM 52.0 °F - 35.1 °F 53% 29.65 in 10.0 mi West 6.9 mph - N/A   Clear
11:53 AM 55.9 °F - 30.0 °F 37% 29.63 in 10.0 mi Variable 5.8 mph 18.4 mph 0.00 in Rain Light Rain
12:53 PM 57.9 °F - 27.0 °F 31% 29.63 in 10.0 mi NW 9.2 mph - 0.00 in Rain Light Rain
1:53 PM 59.0 °F - 28.9 °F 32% 29.62 in 10.0 mi Variable 6.9 mph 16.1 mph 0.00 in Rain Light Rain
2:53 PM 60.1 °F - 28.9 °F 31% 29.62 in 10.0 mi WNW 8.1 mph - 0.00 in Rain Light Rain
3:53 PM 61.0 °F - 28.0 °F 29% 29.62 in 10.0 mi NNW 9.2 mph - 0.00 in Rain Light Rain
4:53 PM 60.1 °F - 28.0 °F 30% 29.63 in 10.0 mi NW 5.8 mph - 0.00 in Rain Light Rain
5:53 PM 60.1 °F - 28.0 °F 30% 29.64 in 10.0 mi Variable 4.6 mph - 0.00 in Rain Light Rain
6:53 PM 52.0 °F - 30.9 °F 45% 29.67 in 10.0 mi Calm Calm - 0.00 in   Clear
7:53 PM 41.0 °F - 30.9 °F 67% 29.69 in 10.0 mi Calm Calm - N/A   Partly Cloudy
8:53 PM 39.0 °F - 30.0 °F 70% 29.70 in 10.0 mi Calm Calm - N/A   Clear
9:53 PM 37.9 °F - 30.9 °F 76% 29.70 in 10.0 mi Calm Calm - N/A   Partly Cloudy
10:53 PM 37.9 °F - 30.9 °F 76% 29.71 in 10.0 mi Calm Calm - N/A   Mostly Cloudy
11:53 PM 37.9 °F - 30.9 °F 76% 29.70 in 10.0 mi Calm Calm - N/A   Partly Cloudy